1535533201.02,22225,20.13,74294.5,24.51,-13.73,-15.21,0,*4B
1535533202.29,22226,20.13,74294.3,24.53,-12.65,-13.79,0,*47
1535533203.52,22227,20.13,74294.5,24.53,-12.43,-13.69,0,*43
1535533204.8,22228,20.13,74296.3,24.53,-13.29,-14.55,0,*49
1535533206.09,22229,20.13,74296.8,24.57,-14.05,-15.81,0,*4D
1535533207.34,22230,20.13,74296.0,24.55,-14.79,-16.27,0,*43
1535533208.59,22231,20.13,74292.5,24.55,-13.83,-15.25,0,*41
1535533209.85,22232,20.13,74296.3,24.55,-13.37,-14.79,0,*45
1535533211.12,22233,20.13,74296.0,24.57,-12.53,-13.79,0,*42
1535533212.37,22234,20.13,74296.8,24.57,-13.33,-14.69,0,*44
1535533213.62,22235,20.13,74296.8,24.57,-12.53,-13.93,0,*40
1535533214.86,22236,20.13,74296.8,24.57,-12.21,-13.51,0,*48
1535533216.08,22237,20.13,74296.5,24.61,-12.39,-13.69,0,*4E
1535533217.34,22238,20.13,74294.5,24.61,-11.55,-12.89,0,*47
1535533218.59,22239,20.13,74294.5,24.63,-12.11,-13.37,0,*43
1535533219.84,22240,20.13,74292.8,24.65,-11.77,-13.07,0,*4B
1535533221.09,22241,20.13,74294.0,24.69,-10.89,-12.15,0,*44
1535533222.32,22242,20.13,74296.0,24.75,-10.97,-12.35,0,*47
1535533223.54,22243,20.19,74296.3,24.75,-11.85,-12.97,0,*4C
1535533224.8,22244,20.13,74294.5,24.79,-11.07,-12.29,0,*48
1535533226.06,22245,20.13,74292.8,24.79,-13.01,-14.15,0,*44
1535533227.31,22246,20.13,74296.3,24.79,-12.83,-14.15,0,*4C
1535533228.59,22247,20.13,74296.0,24.79,-13.83,-15.35,0,*4F
1535533229.84,22248,20.13,74294.3,24.79,-14.97,-16.37,0,*43
1535533231.06,22249,20.13,74292.5,24.81,-13.29,-14.69,0,*4E
1535533232.26,22250,20.13,74294.5,24.81,-12.43,-13.73,0,*47
1535533233.49,22251,20.13,74296.3,24.81,-11.77,-13.15,0,*42
1535533234.72,22252,20.19,74296.0,24.83,-12.21,-13.69,0,*48
1535533235.92,22253,20.19,74296.0,24.81,-12.97,-14.33,0,*4E
1535533237.2,22254,20.19,74298.3,24.83,-11.55,-12.83,0,*4B
1535533238.43,22255,20.19,74298.5,24.85,-11.55,-12.89,0,*46
1535533239.71,22256,20.19,74296.5,24.87,-11.63,-12.83,0,*48
1535533240.96,22257,20.13,74296.3,24.91,-11.23,-12.53,0,*47
1535533242.21,22258,20.19,74296.5,24.91,-11.97,-13.55,0,*40
1535533243.45,22259,20.19,74296.0,24.93,-12.61,-13.87,0,*46
1535533244.69,22260,20.13,74296.0,24.97,-11.45,-12.75,0,*41
1535533245.9,22261,20.13,74296.5,24.93,-11.23,-12.47,0,*45
1535533247.12,22262,20.19,74298.5,24.99,-11.15,-12.43,0,*4D
1535533248.37,22263,20.19,74296.3,24.99,-11.89,-13.43,0,*48
1535533249.62,22264,20.19,74298.3,25.01,-11.93,-13.37,0,*47
1535533250.83,22265,20.19,74298.3,25.05,-11.11,-12.39,0,*47
1535533252.08,22266,20.19,74296.3,25.07,-11.63,-13.11,0,*48
1535533253.36,22267,20.13,74292.0,25.07,-11.59,-12.75,0,*43
1535533254.56,22268,20.13,74294.3,25.09,-12.03,-13.51,0,*49
1535533255.79,22269,20.19,74298.8,25.09,-11.55,-12.93,0,*47
1535533257.05,22270,20.19,74296.3,25.13,-11.55,-12.79,0,*40
1535533258.3,22271,20.19,74298.5,25.11,-11.81,-13.23,0,*44
1535533259.54,22272,20.19,74296.0,25.13,-11.51,-12.65,0,*4B
1535533260.79,22273,20.13,74294.3,25.15,-11.59,-13.07,0,*41
1535533262.05,22274,20.13,74294.3,25.15,-13.73,-15.35,0,*4B
1535533263.27,22275,20.13,74294.3,25.15,-16.45,-18.17,0,*47
1535533264.55,22276,20.19,74296.0,25.11,-14.79,-16.51,0,*41
1535533265.8,22277,20.19,74298.3,25.11,-14.61,-16.13,0,*4F
1535533267.04,22278,20.19,74296.0,25.09,-14.01,-15.53,0,*48
1535533268.27,22279,20.19,74296.3,25.07,-13.19,-14.69,0,*41
1535533269.52,22280,20.19,74296.8,25.07,-13.15,-14.79,0,*4A
1535533270.71,22281,20.13,74296.3,25.09,-13.15,-14.69,0,*44
1535533271.94,22282,20.19,74296.0,25.09,-13.37,-15.11,0,*49
1535533273.18,22283,20.19,74294.5,25.09,-13.97,-15.53,0,*44
1535533274.42,22284,20.13,74292.3,25.09,-12.29,-13.97,0,*49
1535533275.66,22285,20.19,74296.8,25.09,-12.57,-14.43,0,*4F
1535533276.91,22286,20.19,74298.3,25.11,-12.61,-14.23,0,*46
1535533278.17,22287,20.13,74292.8,25.11,-13.23,-14.93,0,*4B
1535533279.44,22288,20.19,74298.0,25.11,-13.83,-15.25,0,*42
1535533280.66,22289,20.13,74292.5,25.09,-12.83,-14.29,0,*46
1535533281.91,22290,20.19,74294.5,25.11,-12.65,-14.11,0,*44
1535533283.18,22291,20.19,74298.8,25.11,-12.35,-13.79,0,*49
1535533284.44,22292,20.13,74294.8,25.11,-13.07,-14.51,0,*47
1535533285.69,22293,20.13,74292.3,25.11,-12.79,-14.23,0,*4B
1535533286.91,22294,20.13,74292.3,25.13,-12.07,-13.47,0,*42
1535533288.17,22295,20.13,74294.3,25.15,-12.07,-13.55,0,*46
1535533289.41,22296,20.13,74296.0,25.15,-12.15,-13.69,0,*49
1535533290.69,22297,20.19,74298.3,25.19,-11.59,-13.01,0,*41
1535533291.94,22298,20.13,74296.0,25.19,-10.75,-12.03,0,*42
1535533293.18,22299,20.19,74298.5,25.23,-10.97,-12.39,0,*4F
1535533294.44,22300,20.19,74296.5,25.23,-11.41,-12.75,0,*4C
1535533295.67,22301,20.19,74300.3,25.25,-12.21,-13.87,0,*42
1535533296.9,22302,20.13,74294.3,25.25,-12.29,-13.79,0,*48
1535533298.17,22303,20.19,74298.5,25.27,-11.55,-13.01,0,*4C
1535533299.42,22304,20.19,74296.5,25.31,-10.45,-11.81,0,*46
1535533300.65,22305,20.19,74298.0,25.31,-10.85,-12.21,0,*42
1535533301.88,22306,20.19,74296.8,25.33,-10.97,-12.35,0,*45
1535533303.13,22307,20.19,74298.0,25.35,-11.73,-13.15,0,*4A
1535533304.38,22308,20.19,74296.5,25.35,-10.79,-12.29,0,*40
1535533305.64,22309,20.19,74296.3,25.41,-12.47,-14.05,0,*45
1535533306.83,22310,20.19,74296.5,25.37,-13.47,-15.11,0,*49
1535533308.06,22311,20.19,74300.0,25.37,-11.41,-12.83,0,*40
1535533309.31,22312,20.19,74296.8,25.41,-11.51,-12.97,0,*46
1535533310.54,22313,20.19,74298.5,25.41,-13.23,-14.69,0,*47
1535533311.77,22314,20.19,74296.5,25.43,-13.01,-14.61,0,*4A
1535533313.05,22315,20.19,74296.0,25.41,-11.67,-13.37,0,*4F
1535533314.31,22316,20.19,74296.0,25.41,-11.29,-12.93,0,*49
1535533315.56,22317,20.19,74296.0,25.43,-11.63,-13.19,0,*47
1535533316.78,22318,20.19,74300.0,25.43,-11.55,-13.15,0,*41
1535533318.02,22319,20.19,74296.5,25.45,-11.45,-13.15,0,*47
1535533319.25,22320,20.19,74294.5,25.45,-11.45,-13.11,0,*49
1535533320.51,22321,20.19,74298.3,25.45,-10.93,-12.71,0,*45
1535533321.74,22322,20.19,74296.0,25.47,-10.45,-12.11,0,*49
1535533322.97,22323,20.19,74298.3,25.49,-11.15,-12.93,0,*48
1535533324.19,22324,20.19,74298.3,25.51,-10.53,-12.15,0,*4B
1535533325.45,22325,20.19,74298.0,25.53,-11.29,-13.11,0,*41
1535533326.65,22326,20.19,74296.5,25.55,-10.31,-12.03,0,*4E
1535533327.93,22327,20.19,74294.5,25.57,-10.41,-11.93,0,*40
1535533329.17,22328,20.19,74300.0,25.57,-9.89,-11.59,0,*75
1535533330.42,22329,20.19,74296.0,25.61,-10.23,-12.07,0,*41
1535533331.64,22330,20.19,74296.5,25.61,-10.15,-12.03,0,*48
1535533332.88,22331,20.19,74298.0,25.61,-10.09,-12.15,0,*43
1535533334.13,22332,20.19,74298.8,25.61,-13.01,-15.67,0,*49
1535533335.33,22333,20.19,74298.8,25.59,-14.33,-16.97,0,*49
1535533336.55,22334,20.19,74296.5,25.59,-13.51,-15.75,0,*42
1535533337.8,22335,20.19,74298.5,25.59,-11.81,-13.97,0,*46
1535533339.08,22336,20.19,74298.3,25.57,-11.85,-13.97,0,*4F
1535533340.36,22337,20.19,74298.5,25.57,-11.93,-13.83,0,*4C
1535533341.6,22338,20.19,74298.3,25.57,-11.85,-13.69,0,*40
1535533342.85,22339,20.19,74298.8,25.57,-10.45,-12.53,0,*44
1535533344.08,22340,20.19,74294.5,25.59,-10.45,-12.53,0,*44
1535533345.32,22341,20.19,74296.0,25.61,-10.53,-12.53,0,*49
1535533346.57,22342,20.19,74296.5,25.65,-10.09,-11.85,0,*49
1535533347.78,22343,20.19,74296.5,25.67,-10.05,-11.97,0,*45
1535533349.02,22344,20.19,74296.3,25.67,-9.61,-11.33,0,*76
1535533350.24,22345,20.19,74296.0,25.71,-9.49,-11.23,0,*7B
1535533351.46,22346,20.19,74298.3,25.71,-10.31,-12.07,0,*4A
1535533352.71,22347,20.19,74298.3,25.75,-10.05,-11.85,0,*41
1535533353.96,22348,20.19,74296.8,25.75,-10.85,-12.65,0,*4B
1535533355.18,22349,20.19,74298.8,25.79,-10.53,-12.39,0,*44
1535533356.41,22350,20.19,74298.3,25.77,-9.37,-11.15,0,*75
1535533357.63,22351,20.19,74298.0,25.79,-9.31,-11.23,0,*79
1535533358.86,22352,20.19,74298.5,25.83,-10.35,-12.39,0,*4B
1535533360.13,22353,20.19,74296.5,25.83,-9.49,-11.59,0,*7C
1535533361.39,22354,20.19,74300.0,25.83,-9.05,-11.07,0,*78
1535533362.61,22355,20.19,74298.5,25.89,-10.23,-12.65,0,*48
1535533363.85,22356,20.19,74298.5,25.89,-11.37,-13.79,0,*43
1535533365.1,22357,20.19,74296.8,25.87,-11.01,-13.79,0,*49
1535533366.34,22358,20.19,74300.0,25.87,-9.75,-12.53,0,*75
1535533367.57,22359,20.19,74300.0,25.91,-10.35,-13.47,0,*4B
1535533368.81,22360,20.19,74298.8,25.87,-9.57,-12.97,0,*76
1535533369.99,22361,20.19,74298.0,25.89,-10.05,-13.69,0,*46
1535533371.21,22362,20.19,74296.0,25.89,-10.01,-14.05,0,*4C
1535533372.46,22363,20.19,74296.8,25.89,-10.79,-15.01,0,*47
1535533373.71,22364,20.19,74298.8,25.83,-11.97,-16.45,0,*48
1535533374.97,22365,20.19,74296.8,25.81,-11.37,-16.09,0,*49
1535533376.22,22366,20.19,74296.8,25.79,-10.85,-15.21,0,*4C
1535533377.41,22367,20.19,74294.8,25.77,-9.75,-14.23,0,*77
1535533378.61,22368,20.19,74300.0,25.77,-9.97,-14.33,0,*75
1535533379.79,22369,20.19,74296.8,25.77,-9.89,-14.37,0,*7F
1535533381.08,22370,20.19,74300.0,25.75,-11.07,-15.89,0,*4E
1535533382.28,22371,20.19,74296.5,25.73,-10.89,-15.49,0,*42
1535533383.51,22372,20.19,74296.0,25.73,-11.23,-16.09,0,*47
1535533384.74,22373,20.19,74296.8,25.69,-12.21,-16.89,0,*44
1535533386.02,22374,20.19,74298.0,25.65,-11.89,-16.65,0,*4C
1535533387.27,22375,20.19,74296.3,25.67,-11.97,-16.69,0,*4C
1535533388.52,22376,20.19,74294.3,25.59,-12.75,-17.55,0,*43
1535533389.78,22377,20.19,74292.5,25.57,-11.93,-16.55,0,*46
1535533391.0,22378,20.19,74300.0,25.55,-11.51,-16.37,0,*41
1535533392.23,22379,20.19,74296.5,25.51,-11.81,-16.55,0,*4D
1535533393.48,22380,20.19,74298.8,25.51,-11.37,-15.89,0,*44
1535533394.74,22381,20.19,74298.8,25.51,-11.63,-16.13,0,*44
1535533395.99,22382,20.19,74296.8,25.51,-11.77,-16.23,0,*41
1535533397.22,22383,20.19,74296.8,25.47,-12.39,-17.03,0,*4D
1535533398.47,22384,20.19,74294.0,25.43,-11.81,-16.51,0,*48
1535533399.73,22385,20.19,74296.8,25.43,-12.53,-17.25,0,*47
1535533401.02,22386,20.19,74298.0,25.41,-11.59,-16.17,0,*4F
1535533402.25,22387,20.19,74298.5,25.41,-9.93,-14.43,0,*72
1535533403.51,22388,20.19,74298.5,25.41,-8.25,-12.71,0,*76
1535533404.76,22389,20.19,74300.8,25.45,-8.45,-12.83,0,*78
1535533405.97,22390,20.19,74298.5,25.43,-8.85,-13.15,0,*74
1535533407.21,22391,20.19,74296.3,25.45,-8.81,-13.23,0,*72
1535533408.49,22392,20.19,74298.3,25.45,-9.53,-13.97,0,*70
1535533409.71,22393,20.19,74296.0,25.47,-10.09,-14.55,0,*4D
1535533410.94,22394,20.19,74296.3,25.47,-11.77,-16.45,0,*41
1535533412.18,22395,20.19,74296.5,25.43,-13.51,-18.31,0,*4F
1535533413.37,22396,20.19,74298.3,25.37,-12.43,-16.93,0,*4B
1535533414.65,22397,20.19,74298.8,25.41,-11.37,-15.81,0,*4B
1535533415.89,22398,20.19,74298.8,25.35,-11.45,-15.99,0,*4B
1535533417.13,22399,20.19,74294.8,25.35,-11.89,-16.37,0,*4D
1535533418.36,22400,20.19,74302.0,25.33,-15.07,-19.65,0,*46
1535533419.58,22401,20.19,74298.0,25.29,-15.67,-20.15,0,*47
1535533420.81,22402,20.19,74298.8,25.21,-18.99,-23.85,0,*4A
1535533422.09,22403,20.19,74298.3,25.15,-17.59,-22.17,0,*45
1535533423.34,22404,20.19,74300.8,25.07,-16.65,-20.93,0,*41
1535533424.6,22405,20.19,74296.5,25.03,-15.63,-19.61,0,*46
1535533425.87,22406,20.19,74298.3,24.99,-13.29,-17.25,0,*41
1535533427.09,22407,20.19,74298.0,25.01,-11.45,-15.25,0,*4A
1535533428.32,22408,20.19,74296.5,25.01,-12.93,-16.69,0,*46
1535533429.52,22409,20.19,74298.3,25.01,-12.93,-16.55,0,*48
1535533430.74,22410,20.19,74296.0,25.01,-10.57,-13.79,0,*41
1535533431.99,22411,20.19,74298.8,25.03,-10.23,-13.33,0,*4F
1535533433.19,22412,20.19,74294.8,25.05,-11.19,-14.19,0,*4D
1535533434.41,22413,20.19,74298.0,25.05,-9.75,-12.61,0,*76
1535533435.67,22414,20.19,74294.8,25.09,-9.37,-11.93,0,*75
1535533436.87,22415,20.19,74296.3,25.13,-10.45,-13.23,0,*4B
1535533438.07,22416,20.19,74298.0,25.13,-12.39,-15.07,0,*41
1535533439.29,22417,20.19,74296.5,25.15,-12.03,-14.61,0,*4E
1535533440.55,22418,20.19,74296.5,25.19,-10.49,-12.79,0,*4E
1535533441.8,22419,20.19,74296.5,25.19,-11.33,-13.69,0,*43
1535533443.05,22420,20.19,74298.0,25.23,-12.83,-15.11,0,*41
1535533444.27,22421,20.19,74296.3,25.21,-12.83,-15.07,0,*45
1535533445.49,22422,20.19,74298.5,25.21,-12.35,-14.33,0,*4D
1535533446.72,22423,20.19,74298.0,25.23,-13.65,-15.71,0,*4D
1535533447.96,22424,20.19,74298.8,25.21,-14.51,-16.59,0,*41
1535533449.18,22425,20.19,74296.5,25.19,-13.65,-15.67,0,*45
1535533450.41,22426,20.19,74292.0,25.23,-12.47,-14.19,0,*46
1535533451.66,22427,20.19,74298.0,25.23,-12.11,-13.93,0,*41
1535533452.9,22428,20.19,74298.0,25.23,-12.35,-14.11,0,*45
1535533454.16,22429,20.19,74296.5,25.25,-13.79,-15.43,0,*4D
1535533455.39,22430,20.19,74298.3,25.25,-13.65,-15.43,0,*48
1535533456.66,22431,20.19,74298.0,25.25,-13.61,-15.43,0,*4D
1535533457.91,22432,20.19,74296.5,25.23,-13.23,-14.83,0,*43
1535533459.12,22433,20.19,74298.5,25.25,-13.15,-14.89,0,*4B
1535533460.35,22434,20.19,74296.0,25.25,-13.43,-15.01,0,*4E
1535533461.6,22435,20.19,74298.5,25.27,-12.65,-14.23,0,*49
1535533462.86,22436,20.19,74296.5,25.27,-12.97,-14.55,0,*46
1535533464.11,22437,20.19,74296.5,25.27,-12.83,-14.37,0,*46
1535533465.37,22438,20.19,74296.3,25.27,-12.71,-14.37,0,*44
1535533466.64,22439,20.19,74296.5,25.31,-13.83,-15.53,0,*4D
1535533467.89,22440,20.19,74296.8,25.31,-13.11,-14.79,0,*41
1535533469.12,22441,20.19,74298.8,25.29,-13.23,-14.97,0,*48
1535533470.36,22442,20.19,74296.3,25.29,-14.33,-16.09,0,*48
1535533471.61,22443,20.19,74296.0,25.29,-13.79,-15.39,0,*40
1535533472.87,22444,20.19,74292.8,25.29,-13.33,-14.97,0,*4C
1535533474.11,22445,20.19,74296.8,25.31,-11.85,-13.47,0,*41
1535533475.34,22446,20.19,74298.3,25.33,-11.77,-13.19,0,*46
1535533476.6,22447,20.19,74298.8,25.35,-11.29,-12.89,0,*42
1535533477.87,22448,20.19,74298.3,25.35,-11.33,-12.83,0,*4C
1535533479.08,22449,20.19,74298.8,25.37,-10.97,-12.47,0,*48
1535533480.34,22450,20.19,74296.5,25.45,-11.07,-12.89,0,*4F
1535533481.59,22451,20.19,74298.5,25.45,-11.97,-13.69,0,*48
1535533482.84,22452,20.19,74298.0,25.45,-11.59,-13.11,0,*46
1535533484.09,22453,20.19,74298.0,25.49,-12.35,-13.93,0,*48
1535533485.36,22454,20.19,74298.3,25.49,-12.71,-14.43,0,*45
1535533486.61,22455,20.19,74296.5,25.47,-14.15,-15.85,0,*45
1535533487.86,22456,20.19,74298.3,25.47,-15.57,-17.25,0,*49
1535533489.12,22457,20.25,74300.3,25.45,-15.29,-17.07,0,*43
1535533490.37,22458,20.19,74296.5,25.43,-15.01,-16.65,0,*45
1535533491.57,22459,20.19,74298.0,25.43,-13.47,-15.15,0,*44
1535533492.8,22460,20.19,74294.5,25.43,-13.07,-14.75,0,*4D
1535533494.04,22461,20.19,74296.8,25.43,-13.51,-15.21,0,*4F
1535533495.27,22462,20.19,74298.0,25.43,-15.53,-17.25,0,*4E
1535533496.53,22463,20.19,74298.8,25.41,-16.69,-18.49,0,*42
1535533497.72,22464,20.19,74296.8,25.37,-16.37,-18.17,0,*44
1535533498.92,22465,20.19,74296.8,25.33,-15.53,-17.31,0,*4B
1535533500.15,22466,20.19,74300.3,25.33,-16.23,-18.11,0,*41
1535533501.35,22467,20.19,74298.0,25.29,-14.65,-16.75,0,*47
1535533502.59,22468,20.19,74298.5,25.29,-14.33,-16.09,0,*40
1535533503.82,22469,20.25,74298.8,25.29,-14.83,-16.59,0,*4F
1535533505.05,22470,20.19,74298.0,25.29,-13.23,-14.83,0,*4F
1535533506.33,22471,20.19,74298.5,25.31,-14.93,-16.69,0,*4D
1535533507.58,22472,20.25,74298.8,25.31,-15.67,-17.45,0,*4B
1535533508.83,22473,20.19,74294.3,25.29,-16.27,-18.01,0,*4B
1535533510.07,22474,20.19,74296.8,25.27,-15.71,-17.35,0,*4A
1535533511.31,22475,20.19,74298.0,25.27,-13.73,-15.25,0,*4C
1535533512.54,22476,20.25,74296.8,25.25,-11.63,-13.15,0,*4B
1535533513.77,22477,20.19,74298.0,25.29,-11.23,-12.79,0,*49
1535533515.05,22478,20.19,74296.0,25.31,-10.79,-12.35,0,*49
1535533516.3,22479,20.19,74298.3,25.35,-11.01,-12.57,0,*46
1535533517.55,22480,20.19,74298.5,25.41,-11.85,-13.65,0,*4F
1535533518.81,22481,20.19,74298.3,25.41,-12.25,-14.05,0,*46
1535533520.04,22482,20.25,74296.3,25.43,-10.57,-12.65,0,*40
1535533521.27,22483,20.19,74296.5,25.45,-10.35,-12.43,0,*47
1535533522.52,22484,20.19,74296.8,25.47,-9.61,-11.59,0,*73
1535533523.74,22485,20.19,74298.8,25.49,-9.31,-11.23,0,*74
1535533524.99,22486,20.19,74298.3,25.53,-10.31,-12.57,0,*44
1535533526.23,22487,20.19,74298.0,25.53,-9.79,-11.85,0,*7D
1535533527.48,22488,20.19,74296.0,25.57,-9.23,-11.59,0,*78
1535533528.7,22489,20.19,74296.8,25.57,-8.29,-10.57,0,*7D
1535533529.92,22490,20.19,74298.8,25.61,-8.25,-10.53,0,*78
1535533531.15,22491,20.19,74298.3,25.65,-8.85,-11.23,0,*71
1535533532.35,22492,20.19,74296.0,25.71,-8.45,-10.97,0,*75
1535533533.57,22493,20.25,74298.5,25.73,-7.83,-10.63,0,*78
1535533534.85,22494,20.25,74296.8,25.75,-8.03,-11.07,0,*7D
1535533536.12,22495,20.25,74298.8,25.79,-7.31,-10.71,0,*7E
1535533537.34,22496,20.25,74296.0,25.81,-8.21,-11.85,0,*7E
1535533538.56,22497,20.25,74298.5,25.83,-8.45,-12.43,0,*76
1535533539.79,22498,20.19,74296.5,25.83,-9.05,-13.23,0,*7B
1535533541.02,22499,20.19,74296.3,25.83,-10.23,-14.69,0,*4F
1535533542.27,22500,20.25,74296.5,25.83,-11.07,-15.63,0,*42
1535533543.5,22501,20.25,74300.0,25.81,-10.27,-14.75,0,*44
1535533544.72,22502,20.25,74300.0,25.79,-9.31,-13.69,0,*75
1535533545.96,22503,20.19,74298.0,25.79,-7.99,-12.25,0,*71
1535533547.21,22504,20.25,74298.0,25.79,-9.01,-13.33,0,*7F
1535533548.44,22505,20.25,74298.5,25.77,-10.09,-14.47,0,*44
1535533549.69,22506,20.19,74296.8,25.79,-11.67,-16.37,0,*45
1535533550.92,22507,20.25,74296.0,25.77,-13.97,-18.65,0,*4E
1535533552.18,22508,20.25,74298.5,25.73,-12.57,-17.07,0,*43
1535533553.45,22509,20.19,74296.8,25.69,-11.77,-16.23,0,*4F
1535533554.66,22510,20.25,74300.0,25.67,-11.41,-15.75,0,*4C
1535533555.89,22511,20.25,74300.8,25.67,-10.63,-14.89,0,*4E
1535533557.14,22512,20.19,74296.3,25.65,-11.15,-15.35,0,*49
1535533558.39,22513,20.25,74298.5,25.65,-10.89,-15.21,0,*49
1535533559.62,22514,20.25,74300.3,25.65,-11.01,-15.15,0,*48
1535533560.84,22515,20.25,74296.8,25.65,-9.79,-13.73,0,*79
1535533562.03,22516,20.25,74298.8,25.67,-10.05,-14.29,0,*43
1535533563.3,22517,20.25,74302.5,25.65,-10.41,-14.43,0,*4C
1535533564.56,22518,20.25,74300.3,25.65,-11.23,-15.43,0,*47
1535533565.83,22519,20.19,74298.0,25.65,-12.11,-16.23,0,*41
1535533567.05,22520,20.25,74300.3,25.61,-12.39,-16.41,0,*41
1535533568.25,22521,20.25,74302.0,25.59,-10.01,-13.93,0,*48
1535533569.47,22522,20.25,74298.3,25.59,-9.71,-13.79,0,*70
1535533570.72,22523,20.25,74302.5,25.59,-11.55,-16.09,0,*4C
1535533571.93,22524,20.25,74296.3,25.59,-12.03,-16.79,0,*4C
1535533573.2,22525,20.25,74300.8,25.57,-9.49,-14.55,0,*7B
1535533574.46,22526,20.25,74296.3,25.57,-6.63,-12.07,0,*7E
1535533575.72,22527,20.25,74300.8,25.59,-5.07,-11.07,0,*73
1535533576.97,22528,20.25,74298.3,25.61,-4.01,-10.15,0,*72
1535533578.25,22529,20.25,74296.8,25.65,-5.31,-11.73,0,*74
1535533579.47,22530,20.25,74298.5,25.67,-4.33,-10.79,0,*76
1535533580.68,22531,20.25,74298.8,25.67,-3.31,-10.15,0,*78
1535533581.88,22532,20.25,74298.5,25.69,-2.23,-9.19,0,*43
1535533583.07,22533,20.25,74298.0,25.71,-2.39,-9.27,0,*4D
1535533584.28,22534,20.25,74298.8,25.71,-1.63,-7.99,0,*4D
1535533585.55,22535,20.25,74298.5,25.75,-1.43,-7.65,0,*49
1535533586.79,22536,20.25,74296.0,25.75,-0.53,-6.19,0,*70
1535533588.04,22537,20.25,74298.3,25.75,-0.45,-5.85,0,*70
1535533589.3,22538,20.25,74296.5,25.75,-1.09,-6.19,0,*40
1535533590.55,22539,20.25,74296.8,25.75,-0.57,-5.27,0,*75
1535533591.75,22540,20.25,74298.3,25.79,0.01,-4.41,0,*68
1535533592.97,22541,20.25,74296.8,25.79,0.83,-3.39,0,*5B
1535533594.18,22542,20.25,74298.3,25.81,0.87,-3.19,0,*59
1535533595.41,22543,20.25,74296.3,25.83,0.91,-3.19,0,*5D
1535533596.6,22544,20.25,74296.8,25.89,1.01,-2.99,0,*61
1535533597.81,22545,20.25,74296.8,25.89,0.87,-2.99,0,*5F
1535533599.04,22546,20.25,74296.3,25.91,0.63,-2.99,0,*5F
1535533600.27,22547,20.25,74298.3,25.95,0.87,-2.99,0,*50
1535533601.5,22548,20.25,74298.5,25.95,0.97,-2.75,0,*5C
1535533602.71,22549,20.25,74296.0,25.99,0.97,-2.99,0,*53
1535533603.98,22550,20.25,74302.0,25.99,1.33,-2.67,0,*65
1535533605.21,22551,20.25,74298.0,26.01,1.71,-2.47,0,*62
1535533606.39,22552,20.25,74296.8,26.01,1.01,-3.35,0,*62
1535533607.65,22553,20.25,74302.3,26.05,-0.27,-4.73,0,*7A
1535533608.87,22554,20.25,74298.5,26.03,0.71,-3.91,0,*5E
1535533610.08,22555,20.25,74298.3,26.05,-0.69,-5.51,0,*77
1535533611.32,22556,20.25,74300.5,26.03,-1.17,-5.77,0,*4E
1535533612.53,22557,20.25,74298.5,26.01,-0.45,-4.85,0,*77
1535533613.77,22558,20.25,74302.5,25.99,0.63,-3.51,0,*5D
1535533615.01,22559,20.25,74304.0,25.99,1.21,-2.83,0,*65
1535533616.25,22560,20.25,74302.5,25.99,0.51,-3.47,0,*50
1535533617.45,22561,20.25,74298.8,25.99,0.97,-2.83,0,*52
1535533618.71,22562,20.25,74298.5,25.99,2.47,-1.13,0,*64
1535533619.91,22563,20.25,74302.3,26.01,2.43,-1.33,0,*61
1535533621.14,22564,20.25,74296.0,26.01,1.59,-2.59,0,*61
1535533622.37,22565,20.25,74298.5,25.99,1.37,-3.35,0,*61
1535533623.6,22566,20.25,74300.0,25.99,0.83,-4.05,0,*58
1535533624.8,22567,20.25,74296.3,25.97,0.87,-4.17,0,*50
1535533626.0,22568,20.25,74296.8,25.97,1.09,-4.17,0,*68
1535533627.21,22569,20.25,74300.3,25.95,1.83,-3.87,0,*67
1535533628.44,22570,20.25,74300.3,25.97,0.95,-5.27,0,*57
1535533629.67,22571,20.25,74296.3,25.93,-0.93,-7.35,0,*78
1535533630.92,22572,20.25,74298.5,25.91,0.59,-5.93,0,*5C
1535533632.12,22573,20.25,74302.3,25.89,0.75,-6.47,0,*50
1535533633.38,22574,20.25,74300.5,25.91,0.25,-7.43,0,*5E
1535533634.59,22575,20.25,74300.5,25.87,-1.79,-9.97,0,*4A
1535533635.84,22576,20.25,74298.5,25.87,-2.67,-10.89,0,*72
1535533637.08,22577,20.25,74298.5,25.79,-3.11,-11.37,0,*76
1535533638.27,22578,20.25,74298.3,25.77,-2.39,-10.85,0,*74
1535533639.54,22579,20.25,74296.5,25.75,-2.51,-10.71,0,*72
1535533640.74,22580,20.25,74302.3,25.71,-4.17,-12.97,0,*7E
1535533641.99,22581,20.25,74300.5,25.71,-3.67,-12.53,0,*77
1535533643.21,22582,20.25,74302.3,25.69,-4.29,-12.97,0,*78
1535533644.45,22583,20.25,74300.5,25.69,-4.65,-13.61,0,*79
1535533645.66,22584,20.25,74300.0,25.69,-6.47,-15.63,0,*78
1535533646.89,22585,20.25,74300.0,25.65,-5.55,-14.19,0,*79
1535533648.14,22586,20.25,74302.0,25.61,-5.73,-13.79,0,*7B
1535533649.34,22587,20.25,74298.0,25.59,-6.89,-15.07,0,*78
1535533650.57,22588,20.25,74302.8,25.59,-7.69,-15.25,0,*78
1535533651.82,22589,20.25,74300.5,25.57,-7.73,-15.15,0,*7F
1535533653.07,22590,20.25,74298.3,25.53,-7.77,-14.89,0,*73
1535533654.32,22591,20.25,74302.5,25.53,-7.73,-14.61,0,*70
1535533655.54,22592,20.25,74300.0,25.51,-9.19,-16.23,0,*77
1535533656.8,22593,20.25,74298.5,25.49,-10.19,-17.21,0,*44
1535533658.05,22594,20.25,74300.8,25.47,-9.57,-16.17,0,*7B
1535533659.24,22595,20.25,74298.8,25.47,-8.33,-14.61,0,*7A
1535533660.5,22596,20.25,74302.3,25.43,-9.15,-14.79,0,*71
1535533661.76,22597,20.25,74300.5,25.45,-9.41,-15.11,0,*78
1535533663.01,22598,20.25,74302.8,25.45,-8.97,-14.01,0,*7D
1535533664.23,22599,20.25,74300.5,25.45,-8.55,-13.15,0,*70
1535533665.5,22600,20.25,74296.5,25.45,-7.99,-11.97,0,*74
1535533666.72,22601,20.25,74300.0,25.47,-6.13,-9.49,0,*4E
1535533667.96,22602,20.25,74302.8,25.51,-6.27,-9.15,0,*44
1535533669.15,22603,20.25,74298.5,25.55,-6.47,-8.97,0,*4C
1535533670.38,22604,20.25,74300.0,25.61,-6.63,-8.63,0,*41
1535533671.56,22605,20.25,74304.5,25.67,-6.55,-8.17,0,*40
1535533672.78,22606,20.25,74300.0,25.67,-6.69,-7.73,0,*41
1535533674.02,22607,20.25,74302.5,25.71,-6.93,-7.57,0,*44
1535533675.27,22608,20.25,74300.0,25.75,-8.11,-8.41,0,*43
1535533676.45,22609,20.25,74296.3,25.77,-8.37,-8.33,0,*41
1535533677.67,22610,20.25,74298.3,25.79,-7.15,-6.59,0,*4A
1535533678.87,22611,20.25,74300.3,25.81,-6.31,-5.39,0,*4E
1535533680.11,22612,20.25,74300.5,25.87,-5.97,-4.77,0,*4F
1535533681.33,22613,20.25,74302.3,25.87,-5.97,-4.53,0,*48
1535533682.57,22614,20.25,74302.8,25.87,-5.73,-4.21,0,*40
1535533683.79,22615,20.25,74298.3,25.93,-3.79,-2.55,0,*4D
1535533684.99,22616,20.25,74298.0,25.93,-2.15,-0.85,0,*7A
1535533686.2,22617,20.25,74302.5,25.93,-2.43,-1.09,0,*4D
1535533687.41,22618,20.25,74296.5,25.95,-2.15,-0.15,0,*7B
1535533688.65,22619,20.25,74300.0,25.99,-2.95,-0.27,0,*7F
1535533689.85,22620,20.25,74300.5,25.99,-2.99,0.01,0,*60
1535533691.07,22621,20.25,74300.0,25.95,-2.39,0.71,0,*50
1535533692.28,22622,20.25,74298.3,25.97,-1.21,2.17,0,*69
1535533693.48,22623,20.25,74300.3,25.97,-0.77,2.69,0,*53
1535533694.67,22624,20.25,74300.0,26.01,-2.03,1.41,0,*60
1535533695.87,22625,20.25,74296.5,25.97,-1.43,2.31,0,*6E
1535533697.05,22626,20.25,74298.3,25.97,-2.19,1.83,0,*6B
1535533698.3,22627,20.25,74296.8,25.99,-2.71,1.47,0,*62
1535533699.5,22628,20.25,74300.8,25.97,-1.51,2.43,0,*65